"Pseudo-MPEC" for P21XFw3

Created 2024 Sep 17 2:22:07 UT using Find_Orb

Click here for an explanation of pseudo-MPECs

 
 Astrometry: 
     P21XFw3* C2024 08 31.60923006 38 07.380+25 39 51.88   ~8VFq 21.16wXNEOCPF52
     P21XFw3  C2024 08 31.61450006 38 07.623+25 39 51.67   ~8VFq 22.12wXNEOCPF52
     P21XFw3  C2024 08 31.61975106 38 07.883+25 39 51.82   ~8VFq 21.33wXNEOCPF52
     P21XFw3 3C2024 09 01.62048506 38 56.289+25 39 16.32   ~91FM 22.38GVNEOCPT14
     P21XFw3 3C2024 09 01.62169806 38 56.330+25 39 16.19   ~91FM 22.08GVNEOCPT14
     P21XFw3 3C2024 09 01.62290706 38 56.400+25 39 16.13   ~91FM 22.10GVNEOCPT14
     P21XFw3  C2024 09 04.61930606 41 18.668+25 37 27.89   ~94KM 21.77GVNEOCPF52
     P21XFw3  C2024 09 04.62013706 41 18.689+25 37 27.90   ~94KM 21.74GVNEOCPF52
     P21XFw3  C2024 09 05.62104006 42 05.315+25 36 51.31   ~96IM 21.60GVNEOCPF52
     P21XFw3  C2024 09 05.62187006 42 05.374+25 36 51.21   ~96IM 21.81GVNEOCPF52
     P21XFw3  C2024 09 06.61435306 42 51.126+25 36 14.47   ~96IM 21.91GVNEOCPF51
     P21XFw3  C2024 09 06.61517406 42 51.140+25 36 14.44   ~96IM 21.31GVNEOCPF51
     P21XFw3  C2024 09 09.60418306 45 06.195+25 34 23.54   ~9D3M 20.88GVNEOCPF52
     P21XFw3  C2024 09 09.60944906 45 06.438+25 34 23.35   ~9D3M 20.97GVNEOCPF52
     P21XFw3  C2024 09 09.61470806 45 06.663+25 34 23.05   ~9D3M 21.47GVNEOCPF52
     P21XFw3  C2024 09 10.62125906 45 51.142+25 33 45.10   ~9ANM 21.13GVNEOCPF52
     P21XFw3  C2024 09 10.62209106 45 51.167+25 33 45.10   ~9ANM 20.67GVNEOCPF52
     P21XFw3 KC2024 09 12.35608 06 47 06.70 +25 32 39.6    ~9FDb 20.5 GXNEOCPW62
     P21XFw3 KC2024 09 12.38045 06 47 07.72 +25 32 39.0    ~9FDb 20.4 GXNEOCPW62
     P21XFw3 KC2024 09 15.18871 06 49 06.65 +25 30 54.8    ~9FB7 20.4 VqNEOCPY65
     P21XFw3 KC2024 09 15.19719 06 49 07.05 +25 30 53.1    ~9FB7 20.7 VqNEOCPY65
     P21XFw3 KC2024 09 15.20641 06 49 07.44 +25 30 52.8    ~9FB7 20.6 VqNEOCPY65
     P21XFw3 KC2024 09 15.21566 06 49 07.82 +25 30 52.2    ~9FB7 20.3 VqNEOCPY65
     P21XFw3 KC2024 09 15.22392 06 49 08.17 +25 30 53.2    ~9FB7       qNEOCPY65

Station data:
(F51) Pan-STARRS 1, Haleakala  (N20.707234 W156.255910)  US/Hawaii.
   Observers J. Bulger, T. Lowe, A. Schultz, M. Willman. Measurers K.
   Chambers, S. Chastel, T. de Boer, L. Denneau, J. Fairlamb, H. Flewelling,
   M. Huber, C.-C. Lin, E. Magnier, Y. Ramanjooloo, R. Wainscoat, R. Weryk.
   1.8-m Ritchey-Chrétien + CCD.
(F52) Pan-STARRS 2, Haleakala  (N20.707382 W156.255910)  US/Hawaii.
   Observers J. Bulger, T. Dukes, T. Lowe, A. Schultz, M. Willman. Measurers
   K. Chambers, S. Chastel, T. de Boer, L. Denneau, J. Fairlamb, H.
   Flewelling, M. Huber, C.-C. Lin, E. Magnier, Y. Ramanjooloo, R. Wainscoat,
   R. Weryk. 1.8-m Ritchey-Chrétien + CCD.
(T14) Mauna Kea-UH/Tholen NEO Follow-Up (CFHT)  (N19.825252 W155.468876)
   US/Hawaii.  Observer R. Weryk. 3.6-m Canada-France-Hawaii Telescope.
(W62) Comet Hunter Observatory2, New Ringgold  (N40.745185 W75.862390)
   US/Pennsylvania.  Observer J. Maikner. 0.30-m f/3.8 Riccardi-Honders + CCD.
(Y65) Two-Meter Twin Telescope, TTT1, Teide  (N28.298728 W16.509580)  Canary
   Islands (Spain).

Orbital elements:  P21XFw3
   Perihelion 2024 Nov 11.19500 +/- 52.3 TT =  4:40:48 (JD 2460625.69500)
Epoch 2024 Sep 15.0 TT = JDT 2460568.5   Ju: 0.3079   Sa: 0.6814   Ur: 0.5709
M 359.99717852 +/- 0.09             Ne: 0.3239                   AutoNEOCP
n   0.00004933 +/-                  Peri.  132.84149 +/- 6
a 736.304640 +/-                    Node   324.35467 +/- 1.3
e   0.9926439 +/- 0.158             Incl.    3.30863 +/- 0.052
P  19979  H   13.33    G   0.15     U  8.4
q 5.41631534 +/- 0.123    Q 1467.19296 +/- 31920          (J2000 ecliptic)
From 24 observations 2024 Aug. 31-Sept. 15; mean residual 0".30
Residuals in arcseconds: 
240831 F52  .07-  .12-    240905 F52  .03+  .06+    240910 F52  .30-  .21-    
240831 F52  .22-  .16-    240905 F52  .31+  .01-    240912 W62  .51+  .03-    
240831 F52  .12-  .15+    240906 F51  .02+  .15-    240912 W62  .21+  .22+    
240901 T14  .13+  .10+    240906 F51  .30-  .15-    240915 Y65  .51-  1.2+    
240901 T14  .10-  .01+    240909 F52  .04-  .17+    240915 Y65  .17+  .17-    
240901 T14  .07+  .01-    240909 F52  .11+  .16+    240915 Y65  .30+  .15-    
240904 F52  .17+  .06-    240909 F52  .02+  .04+    240915 Y65  .29+  .43-    
240904 F52  .07-  .02-    240910 F52  .15-  .24-    240915 Y65  .42+  .86+    

Ephemerides (geocentric):
Date (UTC) HH   RA             Dec           delta  r     elong  mag " sig PA
---- --------  ------------   ------------  ------ ------ -----  --- --------
2024 09 17 02  06 50 24.548   +25 29 42.99  5.6398 5.4315  73.0 21.4 .389 137
2024 09 17 03  06 50 26.240   +25 29 41.44  5.6392 5.4315  73.0 21.4 .394 137
2024 09 17 04  06 50 27.932   +25 29 39.88  5.6386 5.4315  73.1 21.4 .399 137
2024 09 17 05  06 50 29.623   +25 29 38.33  5.6379 5.4314  73.1 21.4 .405 136
2024 09 17 06  06 50 31.313   +25 29 36.77  5.6373 5.4314  73.1 21.4 .410 136
2024 09 17 07  06 50 33.002   +25 29 35.22  5.6367 5.4314  73.2 21.4 .416 136
2024 09 17 08  06 50 34.691   +25 29 33.66  5.6360 5.4314  73.2 21.4 .421 136
2024 09 17 09  06 50 36.378   +25 29 32.11  5.6354 5.4314  73.2 21.4 .427 136
2024 09 17 10  06 50 38.064   +25 29 30.56  5.6348 5.4313  73.3 21.4 .432 135
2024 09 17 11  06 50 39.750   +25 29 29.00  5.6342 5.4313  73.3 21.4 .438 135
2024 09 17 12  06 50 41.434   +25 29 27.45  5.6335 5.4313  73.3 21.4 .444 135
2024 09 17 13  06 50 43.118   +25 29 25.90  5.6329 5.4313  73.4 21.4 .449 135
2024 09 17 14  06 50 44.800   +25 29 24.34  5.6323 5.4312  73.4 21.4 .455 135
2024 09 17 15  06 50 46.482   +25 29 22.79  5.6316 5.4312  73.4 21.4 .461 134
2024 09 17 16  06 50 48.163   +25 29 21.24  5.6310 5.4312  73.5 21.4 .467 134
2024 09 17 17  06 50 49.842   +25 29 19.69  5.6304 5.4312  73.5 21.4 .473 134
2024 09 17 18  06 50 51.521   +25 29 18.13  5.6297 5.4311  73.5 21.4 .479 134
2024 09 17 19  06 50 53.199   +25 29 16.58  5.6291 5.4311  73.6 21.4 .485 134
2024 09 17 20  06 50 54.876   +25 29 15.03  5.6285 5.4311  73.6 21.4 .491 133
2024 09 17 21  06 50 56.552   +25 29 13.48  5.6278 5.4311  73.6 21.4 .497 133
2024 09 17 22  06 50 58.227   +25 29 11.93  5.6272 5.4311  73.7 21.4 .503 133
2024 09 17 23  06 50 59.902   +25 29 10.38  5.6266 5.4310  73.7 21.4 .509 133
2024 09 18 00  06 51 01.575   +25 29 08.83  5.6259 5.4310  73.7 21.4 .516 133
2024 09 18 01  06 51 03.247   +25 29 07.28  5.6253 5.4310  73.8 21.4 .522 133
2024 09 18 02  06 51 04.919   +25 29 05.73  5.6247 5.4310  73.8 21.4 .529 132
2024 09 18 03  06 51 06.589   +25 29 04.18  5.6241 5.4309  73.8 21.4 .535 132
2024 09 18 04  06 51 08.259   +25 29 02.63  5.6234 5.4309  73.9 21.4 .542 132
2024 09 18 05  06 51 09.927   +25 29 01.08  5.6228 5.4309  73.9 21.4 .548 132
2024 09 18 06  06 51 11.595   +25 28 59.53  5.6222 5.4309  73.9 21.4 .555 132
2024 09 18 07  06 51 13.262   +25 28 57.98  5.6215 5.4309  74.0 21.4 .561 132
2024 09 18 08  06 51 14.928   +25 28 56.43  5.6209 5.4308  74.0 21.4 .568 131
2024 09 18 09  06 51 16.592   +25 28 54.89  5.6203 5.4308  74.1 21.4 .575 131
2024 09 18 10  06 51 18.256   +25 28 53.34  5.6196 5.4308  74.1 21.4 .582 131
2024 09 18 11  06 51 19.919   +25 28 51.79  5.6190 5.4308  74.1 21.4 .589 131
2024 09 18 12  06 51 21.581   +25 28 50.24  5.6184 5.4307  74.2 21.4 .596 131
2024 09 18 13  06 51 23.242   +25 28 48.70  5.6177 5.4307  74.2 21.4 .603 131
2024 09 18 14  06 51 24.902   +25 28 47.15  5.6171 5.4307  74.2 21.4 .610 130
2024 09 18 15  06 51 26.562   +25 28 45.60  5.6165 5.4307  74.3 21.4 .617 130
2024 09 18 16  06 51 28.220   +25 28 44.06  5.6158 5.4307  74.3 21.4 .624 130
2024 09 18 17  06 51 29.877   +25 28 42.51  5.6152 5.4306  74.3 21.4 .631 130
2024 09 18 18  06 51 31.534   +25 28 40.97  5.6146 5.4306  74.4 21.4 .639 130
2024 09 18 19  06 51 33.189   +25 28 39.42  5.6139 5.4306  74.4 21.4 .646 130
2024 09 18 20  06 51 34.844   +25 28 37.88  5.6133 5.4306  74.4 21.4 .654 129
2024 09 18 21  06 51 36.497   +25 28 36.33  5.6127 5.4305  74.5 21.4 .661 129
2024 09 18 22  06 51 38.150   +25 28 34.79  5.6120 5.4305  74.5 21.4 .669 129
2024 09 18 23  06 51 39.801   +25 28 33.24  5.6114 5.4305  74.5 21.4 .676 129
2024 09 19 00  06 51 41.452   +25 28 31.70  5.6108 5.4305  74.6 21.4 .684 129
2024 09 19 01  06 51 43.102   +25 28 30.15  5.6101 5.4305  74.6 21.4 .692 129